Weather in Port of Spain

Trinidad and Tobago     10°39′19″N   61°29′00″W
temp.,
°C
wind,
m/s
gust,
m/s
humid.,
%
clouds,
%
prec.,
mm/h
press.,
hPa
HPBL,
m
31 july, sat
sat3123:00+24e239149 0.0 1016183
02:00+24e239212 0.2 1015149
05:00+24e239212 0.3 1015171
08:00+26e35873 1.8 1016439
11:00+28ene35825 2.7 1016749
14:00+28ene46835 7.6 1014874
17:00+27e45845 4.3 1014451
20:00+25e359216 7.2 1016272
1 august, sun
sun123:00+24e359251 0.3 1017255
02:00+24e479358 6.8 1015283
05:00+24e469231 9.2 1016258
08:00+26e47895 12.9 1017446
11:00+29e356713 0.6 10171057
14:00+30ese356514 1.4 10151003
17:00+28ese24717 0.9 1015671
20:00+25e24885 0.9 1017234
2 august, mon
mon223:00+24e239254 1.0 1018154
02:00+24e2492100 3.6 1016144
05:00+24ese2392100 2.8 1016120
08:00+25ese2389100 5.9 1018124
11:00+28se2470100 2.4 1017903
14:00+27sse357999 4.8 1016655
17:00+26se138179 1.3 1015367
20:00+24s348999 2.7 1017192
3 august, tue
tue323:00+23s2290100 4.4 101882
02:00+23sse2290100 8.8 101655
05:00+23sse238944 2.0 101690
08:00+24s338854 4.1 1018190
11:00+25ssw448988 4.3 1018552
14:00+24s4593100 8.9 1017426
17:00+23s3494100 4.0 1016238
20:00+23se128990 4.4 101795
4 august, wed
wed423:00+23e118871 0.0 1018139
02:00+23ese118669 0.0 1016255
05:00+22se12906 0.0 1016128
08:00+24sse11840 0.0 1018197
11:00+28nw136652 0.1 10181048
14:00+27nne237728 1.8 1016708
17:00+27ne347920 0.4 1015553
20:00+25e33870 0.7 1017302